Previsão horária em Abasnurskiy

Hoje, 12 Abril, Segunda-feira

Tempo Temperatura Precipitação Vento Pressão Humidade
00:00 0°C° 0 mm 1 m/s 762 mmHg 98%
01:00 +1°C° 0 mm 1 m/s 763 mmHg 98%
02:00 +1°C° 0 mm 1 m/s 763 mmHg 98%
03:00 -1°C° 0 mm 2 m/s 763 mmHg 98%
04:00 +1°C° 0 mm 2 m/s 764 mmHg 99%
05:00 +1°C° 0 mm 2 m/s 764 mmHg 99%
06:00 +1°C° 0 mm 2 m/s 764 mmHg 99%
07:00 +2°C° 0 mm 2 m/s 765 mmHg 99%
08:00 +3°C° 0 mm 2 m/s 765 mmHg 99%
09:00 +3°C° 0 mm 2 m/s 765 mmHg 99%
10:00 +4°C° 0 mm 2 m/s 765 mmHg 98%
11:00 +4°C° 0 mm 2 m/s 765 mmHg 97%
12:00 +5°C° 0 mm 2 m/s 765 mmHg 96%
13:00 +4°C° 0 mm 3 m/s 766 mmHg 96%
14:00 +4°C° 0 mm 3 m/s 766 mmHg 96%
15:00 +4°C° 0 mm 3 m/s 766 mmHg 97%
16:00 +4°C° 0 mm 3 m/s 765 mmHg 97%
17:00 +3°C° 0 mm 3 m/s 765 mmHg 97%
18:00 +3°C° 0 mm 3 m/s 765 mmHg 97%
19:00 +3°C° 0 mm 3 m/s 765 mmHg 98%
20:00 +3°C° 0 mm 3 m/s 765 mmHg 98%
21:00 +2°C° 0 mm 3 m/s 765 mmHg 98%
22:00 +2°C° 0 mm 3 m/s 765 mmHg 98%
23:00 +2°C° 0 mm 3 m/s 765 mmHg 98%

Amanhã, 13 Abril, Terça-feira

Tempo Temperatura Precipitação Vento Pressão Humidade
00:00 +2°C° 0 mm 3 m/s 764 mmHg 99%
01:00 +2°C° 0 mm 3 m/s 764 mmHg 98%
02:00 +2°C° 0 mm 3 m/s 764 mmHg 97%
03:00 +3°C° 0 mm 2 m/s 764 mmHg 97%
04:00 +3°C° 0 mm 2 m/s 764 mmHg 97%
05:00 +3°C° 0 mm 2 m/s 763 mmHg 96%
06:00 +3°C° 0 mm 2 m/s 763 mmHg 96%
07:00 +4°C° 0 mm 3 m/s 763 mmHg 94%
08:00 +7°C° 0 mm 3 m/s 763 mmHg 93%
09:00 +9°C° 0 mm 3 m/s 763 mmHg 91%
10:00 +11°C° 0 mm 3 m/s 763 mmHg 86%
11:00 +12°C° 0 mm 3 m/s 762 mmHg 81%
12:00 +14°C° 0 mm 4 m/s 762 mmHg 76%
13:00 +15°C° 0 mm 4 m/s 762 mmHg 75%
14:00 +16°C° 0 mm 3 m/s 761 mmHg 74%
15:00 +17°C° 0 mm 3 m/s 761 mmHg 73%
16:00 +14°C° 0 mm 3 m/s 761 mmHg 76%
17:00 +13°C° 0 mm 3 m/s 760 mmHg 80%
18:00 +13°C° 0 mm 2 m/s 760 mmHg 84%
19:00 +12°C° 0 mm 2 m/s 760 mmHg 85%
20:00 +10°C° 0 mm 3 m/s 760 mmHg 85%
21:00 +9°C° 0 mm 3 m/s 760 mmHg 86%
22:00 +8°C° 0 mm 3 m/s 760 mmHg 86%
23:00 +8°C° 0 mm 3 m/s 760 mmHg 86%

Depois de amanhã, 14 Abril, Quarta-feira

Tempo Temperatura Precipitação Vento Pressão Humidade
00:00 +7°C° 0 mm 3 m/s 760 mmHg 87%
01:00 +7°C° 0 mm 2 m/s 759 mmHg 87%
02:00 +7°C° 0 mm 2 m/s 759 mmHg 87%
03:00 +6°C° 0 mm 2 m/s 759 mmHg 88%
04:00 +6°C° 0 mm 2 m/s 759 mmHg 88%
05:00 +6°C° 0 mm 2 m/s 759 mmHg 89%
06:00 +7°C° 0 mm 2 m/s 759 mmHg 89%
07:00 +9°C° 0 mm 2 m/s 759 mmHg 81%
08:00 +11°C° 0 mm 3 m/s 759 mmHg 73%
09:00 +13°C° 0 mm 3 m/s 759 mmHg 65%
10:00 +14°C° 0 mm 3 m/s 758 mmHg 59%
11:00 +15°C° 0 mm 4 m/s 758 mmHg 53%
12:00 +18°C° 0 mm 4 m/s 758 mmHg 47%
13:00 +18°C° 0 mm 4 m/s 757 mmHg 46%
14:00 +18°C° 0 mm 4 m/s 757 mmHg 44%
15:00 +19°C° 0 mm 4 m/s 756 mmHg 42%
16:00 +17°C° 0 mm 3 m/s 756 mmHg 50%
17:00 +16°C° 0 mm 3 m/s 756 mmHg 58%
18:00 +15°C° 0 mm 2 m/s 755 mmHg 67%
19:00 +13°C° 0 mm 2 m/s 755 mmHg 72%
20:00 +11°C° 0 mm 3 m/s 755 mmHg 78%
21:00 +10°C° 0 mm 3 m/s 755 mmHg 84%
22:00 +10°C° 0 mm 2 m/s 755 mmHg 86%
23:00 +9°C° 0 mm 2 m/s 754 mmHg 88%

15 Abril, Quinta-feira

Tempo Temperatura Precipitação Vento Pressão Humidade
00:00 +9°C° 0 mm 2 m/s 754 mmHg 90%
01:00 +8°C° 0 mm 2 m/s 754 mmHg 90%
02:00 +8°C° 0 mm 2 m/s 754 mmHg 90%
03:00 +8°C° 0 mm 2 m/s 754 mmHg 91%
04:00 +8°C° 0 mm 2 m/s 754 mmHg 91%
05:00 +8°C° 0 mm 2 m/s 753 mmHg 90%
06:00 +8°C° 0 mm 2 m/s 753 mmHg 90%
07:00 +10°C° 0 mm 2 m/s 753 mmHg 83%
08:00 +13°C° 0 mm 2 m/s 753 mmHg 75%
09:00 +15°C° 0 mm 2 m/s 753 mmHg 68%
10:00 +16°C° 0 mm 2 m/s 753 mmHg 64%
11:00 +17°C° 0 mm 2 m/s 752 mmHg 59%
12:00 +18°C° 0 mm 2 m/s 752 mmHg 55%
13:00 +18°C° 0 mm 2 m/s 752 mmHg 56%
14:00 +18°C° 0 mm 2 m/s 751 mmHg 57%
15:00 +18°C° 0 mm 1 m/s 751 mmHg 58%
16:00 +18°C° 0 mm 1 m/s 751 mmHg 61%
17:00 +16°C° 0 mm 1 m/s 751 mmHg 64%
18:00 +15°C° 0 mm 1 m/s 750 mmHg 67%
19:00 +14°C° 0 mm 0 m/s 750 mmHg 68%
20:00 +13°C° 0 mm 0 m/s 750 mmHg 69%
21:00 +13°C° 0 mm 0 m/s 750 mmHg 70%
22:00 +12°C° 0 mm 0 m/s 750 mmHg 72%
23:00 +12°C° 0 mm 0 m/s 750 mmHg 73%

16 Abril, Sexta-feira

Tempo Temperatura Precipitação Vento Pressão Humidade
00:00 +12°C° 0 mm 0 m/s 750 mmHg 75%
01:00 +12°C° 0 mm 1 m/s 750 mmHg 78%
02:00 +10°C° 0 mm 2 m/s 750 mmHg 82%
03:00 +9°C° 0 mm 3 m/s 750 mmHg 86%
04:00 +9°C° 0 mm 3 m/s 750 mmHg 86%
05:00 +7°C° 0 mm 4 m/s 750 mmHg 87%
06:00 +6°C° 0 mm 4 m/s 751 mmHg 88%
07:00 +7°C° 0 mm 4 m/s 751 mmHg 83%
08:00 +7°C° 0 mm 5 m/s 751 mmHg 78%
09:00 +8°C° 0 mm 5 m/s 751 mmHg 73%
10:00 +9°C° 0 mm 5 m/s 751 mmHg 71%
11:00 +9°C° 0 mm 5 m/s 752 mmHg 69%
12:00 +10°C° 0 mm 6 m/s 752 mmHg 67%
13:00 +8°C° 0 mm 6 m/s 752 mmHg 72%
14:00 +7°C° 0 mm 6 m/s 753 mmHg 76%
15:00 +5°C° 0 mm 6 m/s 753 mmHg 80%
16:00 +6°C° 0 mm 5 m/s 753 mmHg 75%
17:00 +6°C° 0 mm 5 m/s 753 mmHg 70%
18:00 +6°C° 0 mm 4 m/s 754 mmHg 65%
19:00 +5°C° 0 mm 4 m/s 754 mmHg 67%
20:00 +4°C° 0 mm 3 m/s 754 mmHg 69%
21:00 +3°C° 0 mm 3 m/s 754 mmHg 71%
22:00 +2°C° 0 mm 3 m/s 754 mmHg 70%
23:00 +2°C° 0 mm 3 m/s 755 mmHg 70%

17 Abril, Sábado

Tempo Temperatura Precipitação Vento Pressão Humidade
00:00 +1°C° 0 mm 3 m/s 755 mmHg 69%
01:00 0°C° 0 mm 3 m/s 755 mmHg 70%
02:00 +1°C° 0 mm 2 m/s 755 mmHg 70%
03:00 -1°C° 0 mm 2 m/s 755 mmHg 70%
04:00 0°C° 0 mm 3 m/s 755 mmHg 70%
05:00 0°C° 0 mm 3 m/s 755 mmHg 70%
06:00 -1°C° 0 mm 4 m/s 755 mmHg 70%
07:00 0°C° 0 mm 5 m/s 755 mmHg 65%
08:00 +1°C° 0 mm 6 m/s 756 mmHg 61%
09:00 +2°C° 0 mm 7 m/s 756 mmHg 56%
10:00 +2°C° 0 mm 7 m/s 756 mmHg 53%
11:00 +2°C° 0 mm 8 m/s 756 mmHg 50%
12:00 +2°C° 0 mm 8 m/s 757 mmHg 47%
13:00 +2°C° 0 mm 8 m/s 757 mmHg 44%
14:00 +4°C° 0 mm 8 m/s 757 mmHg 40%
15:00 +4°C° 0 mm 8 m/s 757 mmHg 36%
16:00 +2°C° 0 mm 8 m/s 758 mmHg 39%
17:00 +2°C° 0 mm 7 m/s 758 mmHg 41%
18:00 +2°C° 0 mm 7 m/s 759 mmHg 43%
19:00 +1°C° 0 mm 6 m/s 759 mmHg 43%
20:00 -1°C° 0 mm 6 m/s 760 mmHg 42%
21:00 -2°C° 0 mm 5 m/s 760 mmHg 42%
22:00 -2°C° 0 mm 4 m/s 761 mmHg 44%
23:00 -3°C° 0 mm 4 m/s 761 mmHg 46%
Mostrar mais